FENGYUN 2F              
1 38049U 12002A   19261.15772330 -.00000360  00000-0  00000+0 0  9995
2 38049   1.4411  82.9568 0000711 246.8261 195.9332  1.00273477 28185
CZ-3A R/B               
1 38050U 12002B   19257.99704561 -.00000123  00000-0 -16547-4 0  9991
2 38050  24.2297 150.9931 7214767 176.3530 195.5643  2.29410238 64049
FENGYUN 2F AKM          
1 38072U 12002C   19260.67251424  .00000071  00000-0  00000+0 0  9991
2 38072   3.4216  76.6430 0058310 149.2887 253.8563  0.99391164 27722
FENGYUN 2F DEB          
1 43396U 12002D   19259.94701835 -.00000349  00000-0  00000-0 0  9990
2 43396   3.4250  76.7594 0137286 224.8113 134.5102  1.00206248 18049